This demonstration page uses our WeatherBlox Daily Observations layout. Learn more.

Hourly Observations for October 16, 2020

Temp ( °F °C ) Dew Point ( °F °C ) Humidity (%) Winds ( mph kmh ) Pressure ( in mb ) Visibility ( mi km ) Precip ( " mm )
12:54 am 00:54 Clear 42 5.6 25 -3.9 51 51 W 10 17 30.31 1026 10 16.0934 0 0
1:54 am 01:54 Clear 41 5 26 -3.3 55 55 W 9 15 30.32 1027 10 16.0934 0 0
2:54 am 02:54 Clear 41 5 27 -2.8 57 57 WNW 10 17 30.33 1027 10 16.0934 0 0
3:54 am 03:54 Clear 39 3.9 28 -2.2 65 65 WNW 9 15 30.34 1027 10 16.0934 0 0
4:54 am 04:54 Clear 37 2.8 27 -2.8 67 67 WNW 7 11 30.33 1027 10 16.0934 0 0
5:54 am 05:54 Clear 37 2.8 28 -2.2 70 70 W 3 6 30.34 1027 10 16.0934 0 0
6:54 am 06:54 Clear 38 3.3 28 -2.2 68 68 WNW 6 9 30.35 1028 10 16.0934 0 0
7:54 am 07:54 Sunny 38 3.3 28 -2.2 68 68 W 9 15 30.35 1028 10 16.0934 0 0
8:54 am 08:54 Cloudy 43 6.1 28 -2.2 56 56 W 8 13 30.35 1028 10 16.0934 0 0
9:54 am 09:54 Sunny 48 8.9 29 -1.7 48 48 WSW 9 15 30.33 1027 10 16.0934 0 0
10:54 am 10:54 Sunny 55 12.8 27 -2.8 34 34 WNW 15 24 30.32 1027 10 16.0934 0 0
11:54 am 11:54 Sunny 53 11.7 27 -2.8 37 37 W 15 24 30.31 1026 10 16.0934 0 0
12:54 pm 12:54 Sunny 57 13.9 28 -2.2 33 33 N 6 9 30.28 1026 10 16.0934 0 0
1:54 pm 13:54 Partly Cloudy 57 13.9 24 -4.4 28 28 W 13 20 30.22 1023 10 16.0934 0 0
2:54 pm 14:54 Mostly Sunny 60 15.6 21 -6.1 22 22 VRB 3 6 30.16 1022 10 16.0934 0 0
3:54 pm 15:54 Cloudy 60 15.6 21 -6.1 22 22 WSW 6 9 30.14 1021 10 16.0934 0 0
4:54 pm 16:54 Mostly Cloudy 60 15.6 22 -5.6 23 23 undefined N/A 30.11 1020 10 16.0934 0 0
5:54 pm 17:54 Cloudy 59 15 25 -3.9 27 27 S 9 15 30.07 1018 10 16.0934 0 0
6:54 pm 18:54 Clear 58 14.4 27 -2.8 31 31 S 13 20 30.04 1017 10 16.0934 0 0
7:54 pm 19:54 Partly Cloudy 56 13.3 28 -2.2 34 34 S 13 20 30.02 1017 10 16.0934 0 0
8:54 pm 20:54 Partly Cloudy 54 12.2 26 -3.3 34 34 S 14 22 29.99 1016 10 16.0934 0 0
9:54 pm 21:54 Mostly Cloudy 53 11.7 25 -3.9 34 34 S 14 22 29.96 1015 10 16.0934 0 0
10:54 pm 22:54 Cloudy 54 12.2 25 -3.9 33 33 S 16 26 29.91 1013 10 16.0934 0 0
11:54 pm 23:54 Clear 57 13.9 27 -2.8 32 32 S 18 30 29.86 1011 10 16.0934 0 0

Powered by AerisWeather